Regional Weather Roundup
Issued by NWS

Home | Current Version | Previous Version | Text Only | Print | Product List | Glossary On
Versions: 1 2 3 4 5 6 7 8 9 10 11 12 13 14 15 16 17 18 19 20 21 22 23 24 25 26 27 28 29 30 31 32 33 34 35 36 37 38 39 40 41 42 43 44 45 46 47 48 49 50
403
ASUS45 KREV 231010
RWRNV
NEVADA REGIONAL WEATHER ROUNDUP
NATIONAL WEATHER SERVICE RENO NV
300 AM PDT WED MAY 23 2018

NOTE: "FAIR" INDICATES FEW OR NO CLOUDS BELOW 12,000 FEET WITH NO
SIGNIFICANT WEATHER AND/OR OBSTRUCTIONS TO VISIBILITY.

NVZ001-003-004-231100-
WESTERN NEVADA

CITY           SKY/WX    TMP DP  RH WIND       PRES   REMARKS
RENO           PTCLDY    56  47  71 CALM      29.93S
CARSON CITY    MOCLDY    52  48  87 CALM      29.95S
MINDEN         MOCLDY    48  48 100 CALM      29.96S
FALLON         CLEAR     59  49  69 S6        29.88S
LOVELOCK       CLOUDY    58  51  78 CALM      29.87S
$$

NVZ002-CAZ072-073-231100-
NORTHERN AND CENTRAL SIERRA

CITY           SKY/WX    TMP DP  RH WIND       PRES   REMARKS
S. LAKE TAHOE  MOCLDY    45  43  93 CALM      30.00S
TRUCKEE        FOG       41  41 100 CALM      30.01R VSB<1/4
SQUAW VLY 8000 NOT AVBL
BLUE CANYON    CLOUDY    53  52  96 CALM      29.99S
MAMMOTH LAKES  CLOUDY    45  45  99 CALM      30.04S
BRIDGEPORT     FAIR      40  37  89 CALM      30.00F
$$

NVZ030-031-036-231100-
NORTHERN NEVADA

CITY           SKY/WX    TMP DP  RH WIND       PRES   REMARKS
ELKO           MOCLDY    47  43  86 CALM      29.94R
WINNEMUCCA     CLOUDY    56  50  80 CALM      29.88S
$$

NVZ035-037-231100-
CENTRAL NEVADA

CITY           SKY/WX    TMP DP  RH WIND       PRES   REMARKS
ELY            LGT RAIN  47  43  86 W3        30.00S
EUREKA           N/A     49  46  90 SW5       29.96F
$$

NVZ013-014-231100-
SOUTH CENTRAL NEVADA

CITY           SKY/WX    TMP DP  RH WIND       PRES   REMARKS
TONOPAH        CLOUDY    55  44  66 N7        29.96S
$$

NVZ017-020-022-231100-
SOUTHERN NEVADA

CITY           SKY/WX    TMP DP  RH WIND       PRES   REMARKS
LAS VEGAS      PTCLDY    72  36  26 CALM      29.80R
N. LAS VEGAS   PTCLDY    68  35  29 NW5       29.80S
NELLIS AFB     PTCLDY    66  34  30 NE7       29.79S
HENDERSON      PTCLDY    70  34  26 S12       29.83S
MERCURY        CLOUDY    63  35  35 W3        29.84F
$$




USA.gov is the U.S. government's official web portal to all federal, state and local government web resources and services.